User: anonymous   Login
Location: Unspecified
(0.0000°N, 0.0000°E)
Time: 19:04:52
(UTC+00:00)
Language:

OBJECT B - Orbit

View from above orbital plane
View from above orbital plane
View from above satellite
View from above satellite

Ground track
Ground track

The orbit is defined by the following mean orbital elements,

1 67249U          26145.43074728 +.00000000 +00000-0 +24238-3 0 00006
2 67249  97.5123 212.4514 0294196  49.5267 313.1191 14.74131881    07
Epoch (UTC): 25 May 2026 10:20:16
Eccentricity: 0.0294196
inclination: 97.5123°
perigee height: 441 km
apogee height: 855 km
right ascension of ascending node: 212.4514°
argument of perigee: 49.5267°
revolutions per day: 14.74131881
mean anomaly at epoch: 313.1191°

The dashed part of the orbit path shows where the satellite is in the earth's shadow,  

DLR